Location: Newark
(31.5350°N, 35.0986°E)
Time: 03:58:27
(UTC+00:00)

A-11 Canister half - Pass Details

Date: 26 October 2019
Orbit: 1514 x 1685 km, 47.2° (Epoch: 20 November)

Event Time Altitude Azimuth Distance (km) Brightness Sun altitude
Exits shadow 01:45:35 22° 324° (NW) 3,013 10.2 -27.2°
Maximum altitude 01:50:30 33° 9° (N) 2,458 10.1 -26.1°
Drops below altitude 10° 01:58:47 10° 70° (ENE) 3,740 12.0 -24.4°
Sets 02:02:18 0° 80° (E) 4,701 12.9 -23.6°
